Location: Wiesbaden
(50.0830°N, 8.2500°E)
Time: 15:18:59
(UTC+02:00)

ISS - Pass Details

Date: 10 October 2019
Orbit: 411 x 421 km, 51.6° (Epoch: 18 October)

Event Time Altitude Azimuth Distance (km) Brightness Sun altitude
Rises 19:42:36 0° 280° (W) 2,348 2.1 -9.7°
Reaches altitude 10° 19:45:37 10° 250° (WSW) 1,480 0.3 -10.2°
Maximum altitude 19:47:07 13° 223° (SW) 1,329 -0.6 -10.5°
Drops below altitude 10° 19:48:37 10° 196° (SSW) 1,474 -0.8 -10.7°
Sets 19:51:37 0° 166° (SSE) 2,330 -0.1 -11.2°
